Temperature
19 19 19 20 19 19 21 23 25 26 26 25 25 25 25 26 25 22 21 20 20 19 19 17 16 15 15 15 14 14 14 13 12 11 11 11 11 11 11 10 10 10 10 10 11 11 12 12 12
19 19 20 20 19 19 21 23 25 26 25 25 25 26 26 27 24 22 20 20 19 19 19 17 16 15 15 15 14 14 13 13 12 11 11 11 11 11 10 10 10 10 10 10 11 11 11 11 11
19 19 20 20 20 20 22 24 25 25 25 25 25 26 26 25 24 22 21 20 19 18 18 17 16 15 15 15 14 14 13 13 13 11 11 11 11 11 11 11 11 11 11 11 11 11 11 11 11
18 19 21 20 20 22 24 24 24 23 24 25 25 25 24 22 22 21 20 20 19 18 18 18 16 15 15 15 14 14 14 13 13 12 11 11 11 11 11 11 11 12 12 12 12 12 12 12 12
18 19 19 20 21 23 25 25 24 23 24 25 25 25 23 21 21 20 20 20 19 19 18 18 17 16 15 15 14 14 14 14 13 13 12 12 11 11 11 11 12 12 12 12 12 12 12 13 13
19 20 19 19 21 24 24 24 23 23 24 25 25 24 22 21 21 20 20 19 19 19 18 19 17 16 16 15 15 14 14 14 14 14 13 12 12 12 12 12 13 13 13 13 13 13 13 13 13
19 19 19 20 21 23 24 23 23 23 23 24 23 24 21 20 21 20 19 19 19 18 18 19 18 17 16 16 15 15 15 15 15 15 14 14 13 13 13 14 14 14 14 14 14 14 14 14 14
18 19 18 19 20 22 24 23 23 23 22 23 23 23 22 21 21 20 19 19 19 18 18 18 18 18 17 16 16 16 16 16 15 15 15 15 15 14 14 14 14 14 15 15 15 15 14 14 14
18 17 17 19 20 22 24 23 23 23 22 22 23 23 22 22 21 20 19 19 19 18 18 18 18 17 17 16 16 16 16 16 16 16 15 15 15 14 13 14 14 14 15 15 15 15 15 15 14
17 16 18 20 21 22 23 23 22 22 22 23 23 23 23 22 21 21 20 20 19 19 18 18 18 17 16 16 16 16 16 16 16 16 15 15 14 13 13 14 14 14 15 15 15 15 15 14 14
17 17 19 20 22 22 22 22 22 22 21 22 23 23 22 22 21 22 21 21 21 20 19 18 18 17 16 16 15 15 15 15 15 15 14 14 14 14 14 14 14 14 15 15 15 15 14 14 14
17 18 19 20 21 21 21 21 21 21 21 22 22 22 21 21 21 22 22 22 21 21 20 19 18 17 17 16 16 15 15 15 14 14 14 14 14 14 14 13 13 14 14 13 13 13 13 13 13
17 18 19 20 20 21 21 20 20 21 21 21 21 22 21 21 21 21 21 21 21 21 20 19 18 18 17 16 16 15 15 15 14 14 14 14 13 13 13 13 13 13 13 13 13 12 12 12 12
17 18 19 19 20 21 20 20 20 20 21 21 22 22 21 21 21 20 20 20 20 20 20 19 18 17 17 16 16 15 15 15 15 14 14 13 13 13 13 13 13 12 12 12 12 12 12 12 12
16 16 17 19 20 20 20 18 19 20 21 21 21 22 21 20 20 19 19 19 19 19 19 18 18 17 17 16 16 15 15 15 14 14 13 13 13 12 12 12 12 12 12 12 12 12 12 12 11
15 15 15 17 19 20 19 17 19 21 21 21 22 22 21 20 19 18 17 17 17 18 18 18 18 17 16 16 15 15 15 14 14 13 13 12 12 12 12 12 12 12 12 12 11 11 11 11 11
13 13 14 16 19 19 18 17 19 21 21 22 22 22 21 19 18 17 16 16 16 17 17 18 18 17 16 15 15 15 14 14 13 13 12 12 12 12 12 12 12 11 11 11 11 11 11 11 10
13 14 15 16 18 19 18 18 19 21 21 21 22 22 21 20 18 17 16 15 16 16 16 16 17 16 15 14 14 14 13 13 13 12 12 12 12 12 11 11 11 11 11 11 11 10 10 10 9
13 14 15 17 18 19 18 18 19 20 20 21 22 22 21 19 17 16 15 15 15 15 15 15 15 15 14 14 13 13 13 12 12 12 12 12 12 11 11 11 11 11 10 10 9 9 9 9 8
12 13 14 17 18 19 18 18 19 20 20 21 22 22 20 17 16 15 14 14 14 14 14 14 13 13 13 13 13 12 12 12 12 11 11 11 11 11 11 11 10 10 9 9 8 8 8 7 7
11 12 13 16 18 19 18 17 18 19 21 21 22 21 20 17 15 14 14 13 13 13 13 13 13 13 13 13 12 12 12 11 11 11 11 11 11 10 10 10 9 9 8 8 7 7 6 6 6
11 12 14 16 16 16 16 15 18 19 19 19 20 20 18 16 15 14 13 13 13 13 13 13 13 12 12 12 12 12 12 11 11 11 10 10 10 10 10 9 9 8 7 7 6 6 5 5 5
10 13 14 15 16 16 17 16 17 19 18 17 18 19 17 16 15 13 12 12 12 12 12 12 12 12 12 12 12 12 11 11 10 10 10 10 9 9 9 8 8 7 6 6 6 5 5 4 4
10 12 13 14 14 14 16 16 17 19 19 18 17 18 16 15 14 13 12 12 12 12 12 12 12 12 12 12 11 11 11 10 10 10 9 9 9 8 8 7 7 6 6 5 5 5 4 4 3
10 11 11 12 12 14 17 16 17 19 20 19 17 16 16 14 13 12 11 11 12 12 12 12 12 12 11 11 11 11 10 10 9 9 9 8 8 8 7 6 6 5 5 4 4 4 4 3 2
10 11 12 13 13 15 17 17 18 18 18 19 18 16 15 14 12 11 11 11 11 12 11 11 11 11 11 11 10 10 10 9 9 9 8 8 7 7 6 5 5 4 4 4 4 3 3 2 1
11 12 15 16 16 16 16 18 17 17 16 17 16 15 14 13 12 11 11 10 11 11 11 11 11 11 10 10 10 9 9 9 8 8 7 7 6 5 5 4 4 4 3 3 3 2 2 1 0
11 13 14 15 16 16 16 17 17 16 15 16 15 14 14 13 12 11 10 10 10 10 10 10 10 10 10 9 9 8 8 8 7 7 6 6 5 4 4 3 3 3 3 2 2 1 0 -0 -1
11 13 14 15 17 17 16 17 19 17 17 16 15 15 14 13 12 11 10 10 10 9 9 9 9 9 9 8 8 8 7 7 6 6 5 4 4 3 3 3 3 2 2 1 1 0 -1 -2 -2
12 14 15 15 16 17 17 16 19 17 17 16 15 15 14 13 12 11 10 10 9 9 9 9 9 8 8 8 7 7 6 6 5 5 4 3 3 3 2 2 2 2 1 0 -0 -1 -2 -3 -3
Wind_Speed
18 17 9 3 3 5 9 10 8 4 3 8 7 7 9 7 6 7 5 9 11 16 18 18 18 17 15 14 13 11 8 6 5 5 6 5 5 6 6 6 7 7 7 8 9 10 10 9 7
12 13 8 3 4 6 8 11 6 4 7 8 7 7 7 2 9 9 7 8 10 14 17 16 17 16 15 14 12 10 8 6 4 4 5 5 5 5 5 6 6 7 7 7 7 8 8 9 8
11 12 5 4 6 8 8 5 5 8 7 5 5 7 3 5 8 6 8 8 9 10 15 18 18 15 14 14 12 10 8 6 5 3 4 3 4 4 4 5 5 5 5 5 6 6 6 6 6
7 5 5 6 12 12 7 7 8 9 8 5 4 7 5 6 5 7 9 7 10 10 16 18 17 15 14 14 12 10 8 6 5 4 3 2 2 2 3 4 4 4 3 3 4 4 4 5 5
5 4 7 10 13 13 3 4 6 5 7 6 4 6 6 5 9 10 8 6 9 10 15 17 17 15 14 14 13 10 8 6 5 4 2 1 1 2 2 4 3 1 2 2 3 4 4 4 5
4 5 8 11 14 12 4 3 2 7 9 6 4 6 6 7 8 8 8 5 8 10 13 16 15 14 13 14 13 11 9 7 5 4 2 1 1 2 2 3 2 1 2 3 4 5 6 7 7
7 8 12 14 14 10 3 7 3 6 7 6 5 5 6 7 6 5 8 6 9 10 12 12 13 12 12 13 13 12 9 7 5 4 2 1 2 1 2 4 4 4 4 5 6 8 9 10 10
8 7 15 15 14 13 1 5 2 5 7 7 3 4 6 5 6 5 6 6 8 8 9 13 13 14 13 13 13 13 11 9 7 5 4 4 5 7 9 9 9 7 6 7 9 10 11 12 12
11 12 15 14 13 10 2 4 3 3 5 8 7 3 6 9 8 8 5 4 6 6 6 8 12 11 13 14 15 14 12 11 9 9 11 9 9 13 12 13 8 8 7 9 11 12 13 14 14
9 13 18 14 14 10 4 5 3 4 8 8 7 4 5 5 4 6 8 9 9 8 7 6 7 9 8 9 13 12 12 12 12 13 14 12 12 6 4 9 9 9 10 11 13 15 15 14 12
14 18 14 16 16 12 7 3 4 7 8 9 8 5 5 5 4 6 7 8 11 12 10 8 7 7 7 5 6 6 8 10 13 12 11 11 6 3 3 5 7 9 11 10 11 11 11 11 10
20 20 19 18 15 11 7 7 10 10 9 9 9 7 5 6 7 7 4 2 2 9 12 10 8 7 7 6 4 3 3 3 4 5 3 3 2 1 2 1 2 3 4 5 5 4 7 8 8
25 22 20 17 16 12 7 9 11 12 11 11 11 8 6 7 6 4 4 3 3 4 9 11 9 8 7 5 5 4 4 4 4 5 2 2 1 1 0 1 1 2 3 3 2 3 5 6 5
17 19 21 19 16 13 10 11 13 13 12 13 11 8 6 3 2 4 4 4 3 0 5 7 8 7 7 6 5 4 2 3 2 5 4 3 2 2 3 4 3 3 4 4 3 4 5 5 5
20 18 19 20 18 13 10 16 17 14 14 15 12 8 6 4 2 0 3 4 5 5 3 3 4 5 6 6 7 4 3 4 3 5 6 5 4 3 2 3 4 4 6 7 5 5 5 6 6
15 19 20 20 19 15 13 17 12 12 14 13 9 7 7 8 5 4 4 0 1 1 1 2 2 2 4 5 6 5 4 5 6 7 8 9 9 8 5 6 6 7 7 5 6 5 6 7 7
12 20 21 20 18 17 17 14 10 12 10 8 8 8 7 9 8 8 5 3 2 2 3 4 4 3 5 8 8 8 8 9 9 10 10 12 14 14 8 6 6 8 5 6 7 6 6 7 7
15 20 22 21 16 19 21 18 12 11 10 9 9 9 7 9 10 9 6 5 3 3 5 6 7 7 9 9 10 10 11 10 8 8 10 13 13 14 10 5 7 7 6 6 7 7 7 6 7
20 20 21 20 18 19 19 18 15 14 13 12 10 9 7 10 11 8 7 6 6 6 7 8 9 9 9 8 8 8 8 8 7 7 11 13 13 13 9 6 7 7 6 7 8 6 8 7 7
27 24 21 17 18 18 14 15 12 14 15 12 11 10 10 13 11 8 8 8 8 8 8 9 10 11 10 9 8 8 8 7 7 5 8 12 13 12 10 7 7 7 6 8 7 6 6 6 7
29 25 20 17 16 14 7 10 14 15 15 12 10 8 12 16 13 10 9 9 9 9 9 10 11 12 12 12 10 9 7 6 6 6 6 8 12 12 10 8 6 7 6 6 7 7 7 6 6
25 24 21 19 12 7 10 6 13 19 17 12 10 9 14 15 14 12 11 10 9 9 9 10 11 11 10 9 9 9 8 7 6 5 5 7 10 10 10 8 7 6 6 6 7 7 6 6 6
15 17 21 16 12 8 10 6 7 6 11 11 10 11 14 14 14 13 11 10 10 9 9 9 11 11 11 10 10 10 8 6 5 6 7 7 6 8 9 8 6 6 5 6 6 6 6 5 5
15 15 13 7 6 7 9 8 7 8 15 16 12 13 15 15 15 13 11 11 10 9 9 10 11 11 11 11 10 10 10 9 8 7 6 5 5 6 7 7 6 5 5 5 5 5 7 6 6
17 11 7 8 7 6 10 8 7 2 9 16 17 16 15 15 15 14 12 11 10 10 9 9 11 11 10 11 10 10 10 10 9 6 6 6 5 5 6 6 5 5 5 5 5 6 7 7 8
17 13 6 7 8 6 10 9 3 10 10 12 16 17 16 15 14 13 12 11 10 10 10 10 10 10 10 10 10 9 9 6 6 7 6 6 4 4 5 5 5 5 6 6 6 6 7 7 7
10 14 5 1 9 6 7 6 7 8 9 11 15 17 16 15 15 13 12 11 11 10 10 10 10 10 10 9 9 9 8 7 7 7 6 4 4 4 6 5 6 6 6 7 7 6 8 8 7
8 8 4 3 8 6 10 9 10 12 11 11 15 17 16 15 15 14 13 12 10 9 10 10 10 10 10 9 8 8 7 7 7 6 6 5 5 5 5 6 6 7 7 7 7 7 8 9 8
9 8 6 3 2 3 7 3 4 13 13 13 14 17 17 16 16 14 13 12 11 10 10 10 10 10 9 8 8 8 7 6 6 6 5 5 5 5 5 6 7 7 7 8 7 8 10 9 9
6 7 6 2 0 3 4 4 5 10 9 11 14 16 16 15 14 13 13 12 11 10 10 10 9 9 9 8 8 8 6 6 6 5 4 4 5 5 6 6 7 8 8 8 8 10 10 9 11
Wind_Direction
314 308 307 296 273 238 251 258 265 79 33 33 343 300 295 311 36 94 110 85 106 123 136 148 152 154 151 146 141 135 128 118 111 106 101 90 79 73 62 49 39 33 26 19 14 14 20 30 47
302 303 305 261 257 265 247 242 256 75 31 3 308 269 264 68 86 107 104 87 109 126 139 151 152 156 153 149 144 138 131 122 117 113 111 99 91 80 68 58 45 35 29 22 12 10 15 25 31
283 281 278 269 254 260 290 335 17 39 7 310 297 299 343 37 60 80 104 119 111 121 136 143 151 156 155 152 147 142 133 125 123 122 113 110 106 99 82 72 57 44 32 19 11 7 6 7 6
286 288 236 243 261 266 284 323 18 8 323 282 289 299 71 37 51 97 124 142 126 128 126 141 149 156 157 155 151 145 137 132 132 129 113 111 135 121 102 96 84 56 33 15 3 355 351 343 332
261 250 255 256 261 266 271 331 18 323 284 294 320 307 75 72 96 112 131 142 129 126 127 142 148 156 160 160 155 150 144 140 139 142 142 125 156 139 113 130 124 80 9 345 331 322 313 307 300
253 237 248 255 260 255 195 82 339 271 279 288 319 307 91 72 76 101 124 166 121 119 127 140 149 156 162 163 161 160 155 151 151 159 171 160 89 102 118 157 166 221 301 311 310 306 294 289 282
242 252 255 262 273 275 179 102 275 286 303 322 9 314 100 74 79 124 142 165 122 127 133 145 153 158 165 168 168 169 165 162 166 178 176 115 113 151 183 195 213 242 273 288 293 294 292 289 286
248 253 257 257 266 275 243 115 242 282 294 328 328 297 101 113 120 119 135 155 133 143 152 155 162 168 172 176 179 176 174 174 181 193 194 188 213 230 228 221 218 226 251 277 284 285 287 288 289
256 243 242 243 252 264 194 147 248 297 271 269 260 268 123 138 139 140 158 170 157 162 169 166 164 172 177 180 181 178 181 190 195 207 216 215 231 236 225 220 207 211 244 268 276 278 279 280 281
223 232 236 244 259 279 265 161 256 296 287 281 258 197 129 120 133 176 187 184 178 181 189 184 176 164 170 172 164 180 187 193 202 217 206 212 227 233 136 168 205 230 251 263 268 268 271 273 266
225 231 243 249 257 276 293 300 279 261 264 277 298 341 13 12 298 244 221 205 186 181 183 186 188 169 164 147 160 178 188 183 198 217 191 194 203 169 182 192 213 230 241 245 257 255 250 245 246
235 235 237 248 259 266 267 284 282 275 273 287 304 316 318 294 277 264 254 271 195 172 174 181 184 176 174 155 166 172 170 168 176 182 182 169 138 122 251 221 231 235 242 229 246 255 263 262 265
235 238 241 244 250 254 240 250 265 269 278 279 274 270 261 264 274 309 350 341 285 191 163 171 178 179 174 165 159 175 176 157 162 142 140 100 101 219 353 319 296 284 291 290 277 281 295 304 304
242 240 243 249 244 244 242 249 253 257 264 266 262 251 236 241 6 351 343 344 326 165 153 157 169 183 172 159 155 177 167 125 108 120 118 84 44 44 24 347 345 334 328 319 317 315 314 309 310
251 250 243 240 243 236 242 249 245 249 251 255 256 244 185 144 114 289 46 1 351 6 19 109 152 169 170 165 159 155 147 121 101 88 80 68 49 51 33 10 6 352 357 359 1 352 344 337 333
245 238 241 233 231 230 229 249 248 245 240 234 229 231 177 147 155 114 91 36 49 1 2 80 110 147 154 135 123 113 91 84 77 69 65 56 46 53 51 38 21 13 21 18 7 6 356 342 333
235 224 226 228 222 222 228 245 242 248 241 224 218 227 195 149 137 110 103 80 76 153 137 123 133 143 119 103 91 85 75 67 65 60 56 54 47 47 51 44 26 15 22 17 8 6 357 338 332
218 221 222 221 216 219 228 236 232 246 245 226 227 227 196 145 121 103 95 87 63 72 104 114 112 109 101 95 88 80 74 69 65 62 59 56 52 45 39 44 30 16 21 18 12 5 354 342 343
244 232 224 222 217 224 227 234 234 234 244 240 233 226 179 124 113 119 132 127 99 77 83 97 105 102 99 100 99 94 87 79 68 63 61 58 53 48 43 33 32 20 20 23 12 5 350 344 340
241 245 233 221 215 221 228 237 237 232 231 226 223 216 159 124 122 125 124 107 95 85 81 82 86 88 90 93 94 97 97 89 82 68 59 60 54 47 46 34 29 20 20 21 8 8 355 342 345
234 237 231 220 211 208 220 254 247 243 236 225 215 197 145 137 135 133 109 90 82 78 80 88 87 91 95 97 101 105 99 95 86 79 70 61 58 47 42 37 28 20 24 17 3 13 1 339 334
233 229 230 223 197 194 193 243 242 224 213 203 190 168 138 134 133 128 116 102 92 85 83 90 96 101 105 108 109 107 103 100 98 100 96 84 69 54 36 35 28 22 25 18 360 5 347 345 334
233 227 225 220 204 206 190 217 273 191 168 175 175 149 133 132 130 125 119 112 101 91 85 84 84 82 81 82 86 93 95 98 89 80 74 82 76 61 35 28 23 25 22 6 354 353 346 341 332
232 233 221 211 208 218 208 210 258 216 179 174 162 141 135 132 126 119 114 109 103 95 89 87 86 81 78 80 80 85 87 82 75 67 59 59 66 56 32 23 16 19 10 350 342 348 335 319 308
223 204 171 171 183 206 194 204 232 62 127 152 151 145 140 136 133 131 130 126 122 114 109 104 100 93 85 82 78 76 78 78 71 67 58 53 47 40 22 15 3 0 349 339 344 337 319 307 302
211 202 178 154 160 178 189 200 174 114 87 120 139 141 141 141 140 141 139 133 130 128 122 113 106 99 93 89 86 80 77 76 70 63 61 57 49 35 16 6 354 349 344 339 335 322 312 310 306
192 209 255 200 162 159 166 176 117 117 114 130 141 145 149 150 147 146 139 135 136 134 124 117 111 106 101 96 91 84 80 77 72 67 58 49 36 22 12 358 348 338 333 331 330 319 311 308 304
244 215 240 235 166 162 168 183 172 168 162 161 157 157 156 154 151 147 143 140 139 130 124 120 115 110 101 94 93 91 80 76 74 68 54 35 24 16 359 349 339 330 328 328 324 315 308 308 306
195 202 226 265 329 150 150 141 121 157 161 165 165 161 161 158 154 149 145 140 132 127 127 121 116 113 109 104 93 86 76 67 70 67 49 25 13 1 349 339 330 324 322 324 320 316 311 309 311
227 197 211 174 160 335 90 90 71 105 121 149 155 156 156 153 149 145 142 137 135 137 133 127 123 115 110 105 100 95 85 68 62 57 38 17 1 345 334 329 324 321 321 318 314 312 312 316 321
Height
1512 1510 1509 1509 1509 1509 1505 1491 1480 1479 1481 1484 1487 1486 1485 1483 1486 1497 1495 1493 1492 1490 1491 1493 1495 1497 1498 1500 1500 1501 1501 1500 1500 1500 1501 1501 1502 1502 1502 1503 1503 1503 1503 1503 1504 1504 1506 1506 1506
1512 1511 1510 1508 1510 1514 1502 1488 1481 1480 1484 1486 1487 1485 1483 1482 1486 1490 1492 1493 1493 1491 1491 1493 1495 1497 1498 1500 1500 1501 1501 1500 1500 1501 1501 1502 1502 1503 1503 1503 1503 1503 1502 1502 1503 1503 1504 1505 1505
1511 1511 1512 1508 1506 1507 1497 1483 1481 1481 1485 1488 1487 1484 1483 1486 1488 1490 1492 1492 1493 1493 1492 1493 1495 1497 1499 1500 1500 1501 1501 1500 1500 1501 1502 1503 1503 1503 1503 1503 1503 1502 1502 1502 1502 1503 1503 1504 1504
1513 1512 1509 1508 1506 1494 1487 1485 1484 1485 1487 1487 1487 1485 1485 1488 1489 1490 1491 1492 1493 1493 1492 1494 1495 1497 1498 1499 1500 1501 1501 1500 1500 1501 1502 1503 1503 1504 1504 1503 1503 1502 1501 1501 1501 1502 1502 1503 1503
1512 1511 1508 1506 1499 1488 1482 1484 1487 1489 1489 1487 1486 1485 1488 1490 1489 1490 1491 1493 1494 1494 1493 1494 1495 1496 1498 1499 1500 1500 1500 1500 1500 1501 1502 1503 1504 1504 1504 1503 1503 1502 1501 1501 1501 1501 1502 1502 1502
1510 1505 1508 1506 1495 1483 1481 1484 1488 1490 1488 1486 1486 1486 1490 1490 1490 1491 1491 1492 1494 1493 1493 1494 1494 1496 1497 1498 1499 1500 1500 1500 1500 1501 1501 1502 1503 1503 1504 1503 1503 1502 1502 1501 1501 1501 1501 1501 1501
1507 1504 1503 1499 1493 1484 1480 1484 1488 1488 1488 1487 1487 1487 1490 1489 1489 1490 1491 1492 1493 1493 1493 1493 1494 1495 1497 1498 1499 1499 1500 1500 1500 1501 1501 1502 1502 1503 1503 1503 1503 1502 1502 1501 1501 1501 1501 1501 1500
1502 1502 1500 1497 1494 1487 1480 1483 1487 1489 1488 1488 1487 1487 1489 1489 1488 1489 1491 1492 1493 1493 1494 1493 1494 1495 1496 1497 1498 1499 1500 1500 1500 1501 1501 1502 1502 1503 1503 1503 1503 1502 1502 1501 1501 1500 1500 1500 1499
1499 1501 1497 1493 1490 1483 1479 1482 1486 1487 1488 1487 1487 1487 1487 1487 1487 1488 1490 1491 1492 1493 1494 1494 1494 1494 1495 1496 1497 1499 1499 1500 1500 1501 1501 1502 1502 1502 1503 1503 1503 1503 1502 1501 1501 1500 1500 1499 1498
1494 1494 1489 1486 1483 1480 1478 1481 1484 1486 1486 1485 1484 1485 1485 1486 1487 1488 1489 1489 1489 1490 1492 1493 1495 1495 1496 1497 1497 1498 1499 1499 1500 1500 1501 1502 1502 1503 1504 1504 1503 1503 1502 1501 1500 1500 1499 1498 1497
1486 1485 1484 1482 1481 1479 1478 1480 1482 1484 1485 1484 1483 1483 1483 1485 1486 1487 1487 1487 1487 1487 1489 1491 1493 1495 1495 1496 1497 1497 1498 1499 1499 1500 1502 1502 1503 1503 1503 1503 1503 1502 1501 1500 1499 1498 1497 1496 1495
1482 1479 1481 1480 1479 1478 1478 1480 1482 1482 1482 1482 1481 1481 1482 1483 1484 1485 1485 1485 1486 1486 1486 1488 1491 1493 1494 1495 1496 1497 1498 1499 1500 1501 1502 1503 1503 1503 1503 1503 1502 1501 1500 1499 1498 1497 1496 1495 1494
1477 1476 1477 1477 1477 1476 1476 1478 1480 1480 1480 1480 1480 1480 1480 1481 1481 1481 1482 1482 1484 1485 1485 1486 1488 1490 1492 1494 1495 1496 1498 1499 1500 1500 1501 1502 1502 1502 1502 1502 1501 1500 1499 1498 1497 1495 1494 1493 1492
1474 1474 1474 1473 1472 1473 1474 1475 1477 1475 1477 1477 1476 1475 1476 1477 1477 1477 1478 1479 1480 1482 1483 1484 1485 1487 1489 1491 1493 1494 1497 1498 1499 1499 1500 1500 1501 1501 1500 1500 1499 1498 1497 1496 1495 1493 1492 1490 1488
1474 1473 1470 1468 1468 1469 1473 1472 1470 1471 1472 1471 1471 1471 1472 1472 1473 1474 1474 1474 1475 1476 1478 1480 1482 1484 1487 1489 1491 1493 1495 1496 1497 1498 1498 1499 1499 1499 1498 1498 1497 1496 1495 1494 1492 1490 1488 1486 1484
1470 1471 1470 1462 1463 1465 1472 1470 1464 1464 1464 1464 1465 1467 1468 1469 1470 1471 1471 1471 1472 1472 1474 1476 1478 1481 1484 1487 1489 1491 1493 1494 1495 1496 1496 1497 1496 1496 1496 1495 1495 1494 1492 1491 1489 1487 1485 1482 1480
1469 1465 1462 1459 1457 1459 1463 1463 1459 1459 1459 1459 1461 1463 1464 1465 1467 1468 1468 1469 1470 1470 1471 1472 1474 1478 1481 1483 1486 1488 1489 1490 1491 1493 1494 1494 1494 1494 1494 1494 1493 1492 1490 1488 1486 1484 1481 1478 1475
1461 1457 1456 1455 1452 1454 1456 1455 1454 1455 1454 1455 1457 1459 1460 1462 1464 1466 1467 1467 1468 1469 1469 1470 1472 1475 1478 1480 1482 1484 1486 1488 1490 1492 1493 1493 1493 1493 1493 1492 1491 1490 1488 1486 1483 1481 1478 1476 1472
1457 1453 1451 1448 1447 1448 1449 1449 1448 1449 1450 1450 1452 1454 1455 1458 1461 1464 1466 1467 1467 1468 1469 1470 1471 1474 1476 1478 1480 1483 1485 1487 1489 1491 1492 1493 1493 1493 1492 1491 1490 1488 1486 1483 1481 1478 1475 1472 1468
1458 1455 1449 1444 1441 1442 1444 1444 1441 1441 1442 1443 1446 1448 1451 1454 1459 1463 1466 1467 1467 1468 1469 1471 1472 1474 1476 1478 1480 1483 1485 1488 1490 1491 1492 1492 1492 1492 1490 1489 1488 1486 1483 1481 1478 1475 1472 1470 1467
1453 1452 1448 1443 1436 1436 1442 1446 1440 1435 1434 1436 1439 1442 1445 1449 1456 1462 1465 1466 1467 1468 1469 1471 1472 1474 1477 1479 1481 1484 1486 1488 1490 1491 1492 1492 1491 1490 1489 1487 1485 1483 1480 1478 1475 1473 1470 1467 1466
1448 1444 1443 1438 1438 1443 1445 1454 1433 1422 1427 1430 1434 1438 1442 1448 1454 1460 1463 1465 1466 1468 1470 1472 1474 1476 1479 1481 1483 1485 1486 1488 1490 1491 1491 1491 1490 1488 1487 1485 1482 1480 1478 1475 1473 1471 1468 1466 1463
1442 1438 1438 1434 1436 1438 1436 1444 1433 1415 1424 1427 1430 1435 1440 1446 1453 1458 1462 1464 1466 1469 1471 1473 1475 1477 1480 1482 1484 1486 1487 1488 1490 1490 1490 1489 1488 1486 1484 1482 1480 1478 1475 1473 1471 1468 1466 1463 1460
1440 1438 1433 1431 1435 1444 1435 1440 1433 1414 1414 1421 1427 1433 1439 1446 1452 1457 1460 1463 1466 1469 1472 1474 1476 1478 1481 1483 1485 1486 1487 1488 1489 1489 1489 1488 1486 1484 1482 1480 1477 1475 1473 1470 1468 1465 1463 1460 1457
1435 1432 1434 1440 1443 1440 1426 1432 1426 1407 1404 1411 1422 1431 1438 1445 1450 1455 1459 1463 1466 1469 1472 1475 1477 1479 1482 1484 1485 1486 1487 1487 1488 1488 1487 1486 1484 1482 1480 1477 1475 1473 1470 1468 1465 1463 1459 1456 1453
1422 1424 1424 1428 1435 1428 1419 1424 1414 1407 1407 1412 1420 1429 1437 1444 1449 1454 1458 1462 1466 1469 1473 1475 1477 1479 1481 1483 1484 1485 1486 1487 1487 1486 1485 1484 1482 1480 1478 1475 1473 1471 1468 1465 1462 1459 1455 1452 1448
1416 1416 1403 1403 1410 1418 1419 1412 1413 1409 1412 1416 1422 1429 1436 1442 1448 1453 1458 1462 1465 1469 1472 1475 1477 1479 1481 1482 1483 1484 1485 1485 1485 1484 1483 1482 1480 1478 1475 1473 1471 1468 1465 1462 1458 1455 1451 1447 1443
1413 1406 1406 1404 1409 1416 1416 1414 1413 1414 1415 1417 1421 1427 1434 1440 1446 1452 1456 1461 1465 1468 1471 1474 1476 1478 1479 1481 1482 1483 1483 1483 1483 1482 1481 1479 1477 1475 1473 1470 1468 1465 1462 1458 1454 1450 1446 1442 1438
1409 1407 1403 1398 1394 1403 1416 1414 1393 1402 1406 1412 1417 1424 1430 1437 1444 1449 1455 1459 1463 1467 1470 1472 1474 1476 1478 1479 1480 1481 1482 1482 1481 1480 1478 1476 1474 1472 1470 1467 1464 1461 1458 1454 1449 1445 1440 1436 1432
1402 1400 1399 1402 1401 1398 1403 1418 1395 1399 1402 1407 1413 1421 1429 1436 1442 1448 1453 1457 1461 1465 1468 1470 1472 1474 1476 1477 1479 1479 1480 1479 1478 1477 1476 1474 1472 1469 1467 1464 1461 1457 1453 1449 1444 1439 1435 1431 1426